Change the Weather History Date:

Thursday, June 21, 2012

  Actual Average Record
Temperature  
Mean Temperature 76 °F 69 °F  
Max Temperature 86 °F 78 °F 93 °F (1953)
Min Temperature 65 °F 59 °F 34 °F (1940)
Degree Days  
Heating Degree Days 0 1  
Month to date heating degree days 43 36  
Since 1 June heating degree days 43 36  
Since 1 July heating degree days 4206 5337  
Cooling Degree Days 11 4  
Month to date cooling degree days 63 65  
Year to date cooling degree days 177 106  
Since 1 June cooling degree days 63 65  
Growing Degree Days 25 (Base 50)    
Moisture  
Dew Point 64 °F    
Average Humidity 71    
Maximum Humidity 93    
Minimum Humidity 48    
Precipitation  
Precipitation T in 0.14 in 2.08 in (1979)
Month to date precipitation 1.86 2.78  
Year to date precipitation 20.69 19.94  
Snow  
Snow 0.00 in - - ()
Month to date snowfall 0.0  
Since 1 September snowfall 36.0  
Snow Depth 0.00 in    
Sea Level Pressure  
Sea Level Pressure 30.00 in    
Wind  
Wind Speed 3 mph (NW)    
Max Wind Speed 13 mph    
Max Gust Speed 17 mph    
Visibility 10 miles    
Events      
T = Trace of Precipitation, MM = Missing Value Source: NWS Daily Summary

Daily Weather History Graph

Daily Weather History Graph

Search for Another Location

Airport or City:

Trip Planner

Search our weather history database for the weather conditions in past years. The results will help you decide how hot, cold, wet, or windy it might be!

Date:

Astronomy

Jun. 21, 2012 Rise Set
Actual Time 6:02 AM EDT 8:49 PM EDT
Civil Twilight 5:31 AM EDT 9:21 PM EDT
Nautical Twilight 4:52 AM EDT 10:00 PM EDT
Astronomical Twilight 4:07 AM EDT 10:45 PM EDT
Moon 7:57 AM EDT (6/21) 10:14 PM EDT (6/21)
Length of Visible Light 15h 49m
Length of Day
14h 47m
Waxing Crescent, 4% of the Moon is Illuminated
Jun 21
Waxing Crescent
Jun 26
First Quarter
Jul 3
Full
Jul 10
Last Quarter
Jul 19
New

Hourly Weather History & Observations

Time (EDT) Temp. Heat Index Dew Point Humidity Pressure Visibility Wind Dir Wind Speed Gust Speed Precip Events Conditions
12:51 AM 70.0 °F - 64.0 °F 81% 30.06 in 9.0 mi South 5.8 mph - N/A   Clear
1:51 AM 70.0 °F - 64.0 °F 81% 30.05 in 9.0 mi Calm Calm - N/A   Clear
2:51 AM 68.0 °F - 64.0 °F 87% 30.04 in 8.0 mi Calm Calm - N/A   Mostly Cloudy
3:51 AM 66.9 °F - 64.0 °F 90% 30.05 in 7.0 mi Calm Calm - N/A   Clear
4:51 AM 66.0 °F - 62.1 °F 87% 30.05 in 7.0 mi Calm Calm - N/A   Clear
5:51 AM 66.9 °F - 62.1 °F 84% 30.06 in 10.0 mi Calm Calm - N/A   Scattered Clouds
6:51 AM 69.1 °F - 63.0 °F 81% 30.07 in 9.0 mi Calm Calm - N/A   Partly Cloudy
7:51 AM 71.1 °F - 64.0 °F 78% 30.07 in 10.0 mi Calm Calm - N/A   Partly Cloudy
8:51 AM 75.9 °F - 64.0 °F 67% 30.06 in 10.0 mi WSW 6.9 mph - N/A   Partly Cloudy
9:51 AM 79.0 °F - 66.0 °F 64% 30.04 in 10.0 mi Variable 3.5 mph - N/A   Clear
10:51 AM 81.0 °F 82.7 °F 64.9 °F 58% 30.03 in 10.0 mi WNW 5.8 mph - N/A   Clear
11:51 AM 82.0 °F 84.1 °F 66.0 °F 58% 30.03 in 10.0 mi NW 5.8 mph - N/A   Scattered Clouds
12:51 PM 82.0 °F 84.1 °F 66.0 °F 58% 30.02 in 10.0 mi NW 5.8 mph - N/A   Mostly Cloudy
1:51 PM 82.9 °F 84.6 °F 64.9 °F 54% 30.00 in 10.0 mi NNW 5.8 mph - 0.00 in   Mostly Cloudy
2:51 PM 84.9 °F 87.1 °F 66.0 °F 53% 29.97 in 10.0 mi North 6.9 mph - N/A   Clear
3:51 PM 82.9 °F 84.6 °F 64.9 °F 54% 29.96 in 10.0 mi Variable 3.5 mph - N/A   Mostly Cloudy
4:51 PM 84.9 °F 86.6 °F 64.9 °F 51% 29.92 in 10.0 mi Calm Calm - N/A   Clear
5:51 PM 84.0 °F 84.9 °F 63.0 °F 49% 29.91 in 10.0 mi North 3.5 mph - N/A   Clear
6:51 PM 82.0 °F 83.8 °F 64.9 °F 56% 29.91 in 10.0 mi NW 9.2 mph - N/A   Overcast
7:51 PM 79.0 °F - 64.0 °F 60% 29.93 in 10.0 mi NNW 4.6 mph - N/A   Clear
8:51 PM 75.9 °F - 64.0 °F 67% 29.92 in 10.0 mi NNW 3.5 mph - N/A   Clear
9:51 PM 73.0 °F - 63.0 °F 71% 29.92 in 10.0 mi Calm Calm - N/A   Clear
10:51 PM 71.1 °F - 63.0 °F 75% 29.95 in 10.0 mi SSE 3.5 mph - N/A   Scattered Clouds
11:51 PM 70.0 °F - 64.0 °F 81% 29.94 in 10.0 mi Calm Calm - N/A   Clear